« Back
NWS Peachtree City, Ga » Text Product » GA Regional Weather Roundup


Printer-friendly Version
Current Version              Previous Versions:   1  2  3  4  5  6  7  8  9  

Regional Weather Roundup

088
ASUS42 KFFC 030010
RWRGA
WEATHER ROUNDUP FOR GEORGIA
NATIONAL WEATHER SERVICE PEACHTREE CITY GA
800 PM EDT SUN AUG 02 2015

NOTE: "FAIR" INDICATES FEW OR NO CLOUDS BELOW 12,000 FEET WITH NO
SIGNIFICANT WEATHER AND/OR OBSTRUCTIONS TO VISIBILITY.

* = USE WITH CAUTION. THE STATIONS MARKED WITH AN ASTERISK MAY NOT
REPORT WEATHER SUCH AS PRECIPITATION, FOG, OR THUNDER AND ARE NOT
QUALITY CONTROLLED BY NWS.

THE REMARK "TC" DENOTES TEMPERATURE READING IN DEGREES CELSIUS.

GAZ001>058-030100-
NORTH GEORGIA

CITY           SKY/WX    TMP DP  RH WIND       PRES   REMARKS
ATLANTA        PTCLDY    90  63  40 NW6       29.89S HX  91
6HR MIN TEMP:  88; 6HR MAX TEMP:  94;

ATHENS         CLOUDY    84  68  58 VRB6      29.91R
6HR MIN TEMP:  84; 6HR MAX TEMP:  96;

CHAMBLEE       MOCLDY    89  62  40 CALM      29.89S
6HR MIN TEMP:  89; 6HR MAX TEMP:  96;

PEACHTREE CITY MOCLDY    87  71  58 CALM      29.88F HX  93
6HR MIN TEMP:  87; 6HR MAX TEMP:  96;

ROME           MOCLDY    89  60  37 NE6       29.87S
6HR MIN TEMP:  89; 6HR MAX TEMP:  95;

WEST ATLANTA   CLEAR     90  62  39 N5        29.88R HX  90
6HR MIN TEMP:  90; 6HR MAX TEMP:  94;

GAINESVILLE    CLEAR     85  60  42 E5        29.94S
6HR MIN TEMP:  85; 6HR MAX TEMP:  92;

CARTERSVILLE   PTCLDY    83  67  58 CALM      29.89S
6HR MIN TEMP:  83; 6HR MAX TEMP:  94;



CITY           SKY/WX    TMP DP  RH WIND       PRES   REMARKS
DALTON*        PTCLDY    81  64  57 CALM      29.90S
LAWRENCEVILLE* CLEAR     88  59  37 NE6       29.89S
MARIETTA       MOCLDY    88  62  40 N7        29.90R
KENNESAW*      PTCLDY    88  63  42 VRB5      29.91R
BLAIRSVILLE*     N/A     78  45  30 CALM      29.97S
$$

GAZ059>098-102>109-030100-
CENTRAL GEORGIA

CITY           SKY/WX    TMP DP  RH WIND       PRES   REMARKS
AUGUSTA-BUSH   MOCLDY    78  69  73 VRB3      29.88F
6HR MIN TEMP:  78; 6HR MAX TEMP:  95; 6HR PCP: TRACE;

AUGUSTA-DANIEL MOCLDY    78  69  73 NE6       29.90F
6HR MIN TEMP:  76; 6HR MAX TEMP:  94; 6HR PCP: TRACE;

COLUMBUS       CLEAR     88  68  51 CALM      29.84S HX  91
6HR MIN TEMP:  88; 6HR MAX TEMP:  94;

MACON          CLEAR     88  70  55 E8        29.85S HX  93
6HR MIN TEMP:  87; 6HR MAX TEMP:  93;

ROBINS AFB     CLEAR     88  74  63 E5        29.85R HX  97


CITY           SKY/WX    TMP DP  RH WIND       PRES   REMARKS
LAGRANGE*      CLOUDY    89  77  68 CALM      29.87R HX 101
SYLVANIA*      CLEAR     83  76  79 SE5       29.90S HX  90
MILLEDGEVILLE* MOCLDY    86  68  54 NE7       29.87R
$$

GAZ099>101-110>166-030100-
SOUTH GEORGIA

CITY           SKY/WX    TMP DP  RH WIND       PRES   REMARKS
SAVANNAH       HVY RAIN  75  73  93 S5        29.90S FOG
6HR MIN TEMP:  75; 6HR MAX TEMP:  84; 6HR PCP:  0.32;

VALDOSTA       CLOUDY    81  76  84 E6        29.84R
6HR MIN TEMP:  78; 6HR MAX TEMP:  84; 6HR PCP:  0.06;

ALMA           MOCLDY    79  74  84 SE5       29.86R
6HR MIN TEMP:  78; 6HR MAX TEMP:  89; 6HR PCP:  0.08;

ST SIMONS      CLOUDY    80  73  79 S6        29.88R
6HR MIN TEMP:  76; 6HR MAX TEMP:  84; 6HR PCP: TRACE;

ALBANY         MOCLDY    82  74  76 N7        29.85S
HUNTER AFB     DRIZZLE   75  75 100 CALM      29.87F
MOODY AFB      PTCLDY    78  75  91 E6        29.84R
BRUNSWICK      CLOUDY    79  75  89 CALM      29.88S


CITY           SKY/WX    TMP DP  RH WIND       PRES   REMARKS
BAINBRIDGE*    PTCLDY    88  77  70 N6        29.83R HX 100
MOULTRIE*      CLEAR     82  73  74 SE5       29.85R
VIDALIA*       MOCLDY    79  73  83 SE7       29.88S
WAYCROSS*      CLOUDY    83  77  83 SE5       29.86R HX  92
DOUGLAS*       PTCLDY    81  73  78 SE3       29.87S
$$



USA.gov is the U.S. government's official web portal to all federal, state and local government web resources and services.